Weather History for Puyallup, WA

Change the Weather History Date:

Saturday, May 25, 2013

  Actual Average (KTCM) Record (KTCM)
Temperature  
Mean Temperature 52 °F -  
Max Temperature 59 °F 64 °F 79 °F (1966)
Min Temperature 46 °F 45 °F 32 °F (1964)
Degree Days  
Heating Degree Days 12    
Growing Degree Days 2 (Base 50)    
Moisture  
Dew Point 47 °F    
Average Humidity 80    
Maximum Humidity 100    
Minimum Humidity 55    
Precipitation  
Precipitation 0.00 in - - ()
Sea Level Pressure  
Sea Level Pressure 30.03 in    
Wind  
Wind Speed 0 mph (NW)    
Max Wind Speed 4 mph    
Max Gust Speed -    
Visibility 10 miles    
Events      
Averages and records for this station are not official NWS values.
T = Trace of Precipitation, MM = Missing Value Source: NWS Daily Summary

Daily Weather History Graph

Daily Weather History Graph

Search for Another Location

Airport:

Trip Planner

Search our weather history database for the weather conditions in past years. The results will help you decide how hot, cold, wet, or windy it might be!

Date:

Astronomy

May. 25, 2013 Rise Set
Actual Time 5:22 AM PDT 8:50 PM PDT
Civil Twilight 4:44 AM PDT 9:28 PM PDT
Nautical Twilight 3:54 AM PDT 10:18 PM PDT
Astronomical Twilight 2:49 AM PDT 11:24 PM PDT
Moon 9:43 PM PDT (5/25) 5:56 AM PDT (5/25)
Length of Visible Light 16h 43m
Length of Day
15h 27m
Waxing Gibbous, 99% of the Moon is Illuminated
May 25
Waxing Gibbous
May 31
Last Quarter
Jun 8
New
Jun 16
First Quarter
Jun 23
Full

Hourly Weather History & Observations

Time (PDT) Temp. Dew Point Humidity Pressure Visibility Wind Dir Wind Speed Gust Speed Precip Events Conditions
12:15 AM 50.0 °F 48.2 °F 94% 30.07 in 10.0 mi Calm Calm - N/A   Unknown
12:35 AM 50.0 °F 46.4 °F 87% 30.06 in 10.0 mi Calm Calm - N/A   Unknown
12:55 AM 48.2 °F 46.4 °F 93% 30.06 in 10.0 mi Calm Calm - N/A   Unknown
1:15 AM 48.2 °F 46.4 °F 93% 30.06 in 10.0 mi Calm Calm - N/A   Unknown
1:35 AM 48.2 °F 46.4 °F 93% 30.06 in 10.0 mi Calm Calm - N/A   Unknown
1:55 AM 48.2 °F 46.4 °F 93% 30.06 in 10.0 mi Calm Calm - N/A   Unknown
2:15 AM 48.2 °F 46.4 °F 93% 30.05 in 10.0 mi Calm Calm - N/A   Unknown
2:35 AM 48.2 °F 46.4 °F 93% 30.05 in 10.0 mi Calm Calm - N/A   Unknown
2:55 AM 48.2 °F 46.4 °F 93% 30.05 in 10.0 mi Calm Calm - N/A   Unknown
3:15 AM 48.2 °F 48.2 °F 100% 30.05 in 10.0 mi Calm Calm - N/A   Unknown
3:35 AM 48.2 °F 46.4 °F 93% 30.05 in 10.0 mi Calm Calm - N/A   Unknown
3:55 AM 48.2 °F 46.4 °F 93% 30.06 in 10.0 mi Calm Calm - N/A   Unknown
4:15 AM 48.2 °F 46.4 °F 93% 30.06 in 10.0 mi Calm Calm - N/A   Unknown
4:35 AM 48.2 °F 46.4 °F 93% 30.05 in 10.0 mi Calm Calm - N/A   Unknown
4:55 AM 48.2 °F 46.4 °F 93% 30.05 in 10.0 mi Calm Calm - N/A   Unknown
5:15 AM 48.2 °F 46.4 °F 93% 30.05 in 10.0 mi Calm Calm - N/A   Unknown
5:35 AM 48.2 °F 46.4 °F 93% 30.05 in 10.0 mi Calm Calm - N/A   Unknown
5:55 AM 46.4 °F 46.4 °F 100% 30.05 in 10.0 mi Calm Calm - N/A   Unknown
6:15 AM 48.2 °F 46.4 °F 93% 30.05 in 10.0 mi Calm Calm - N/A   Unknown
6:35 AM 48.2 °F 46.4 °F 93% 30.05 in 10.0 mi Calm Calm - N/A   Unknown
6:55 AM 48.2 °F 46.4 °F 93% 30.05 in 10.0 mi Calm Calm - N/A   Unknown
7:15 AM 48.2 °F 48.2 °F 100% 30.05 in 10.0 mi Calm Calm - N/A   Unknown
7:35 AM 50.0 °F 46.4 °F 87% 30.05 in 10.0 mi Calm Calm - N/A   Unknown
7:55 AM 50.0 °F 46.4 °F 87% 30.05 in 10.0 mi Calm Calm - N/A   Unknown
8:15 AM 50.0 °F 46.4 °F 87% 30.05 in 10.0 mi Calm Calm - N/A   Unknown
8:35 AM 50.0 °F 46.4 °F 87% 30.05 in 10.0 mi Calm Calm - N/A   Unknown
8:55 AM 50.0 °F 48.2 °F 94% 30.05 in 10.0 mi Calm Calm - N/A   Unknown
9:15 AM 51.8 °F 46.4 °F 82% 30.06 in 10.0 mi Calm Calm - N/A   Unknown
9:35 AM 53.6 °F 46.4 °F 77% 30.05 in 10.0 mi Calm Calm - N/A   Unknown
9:55 AM 53.6 °F 46.4 °F 77% 30.05 in 10.0 mi Calm Calm - N/A   Unknown
10:15 AM 53.6 °F 44.6 °F 72% 30.05 in 10.0 mi Calm Calm - N/A   Unknown
10:35 AM 53.6 °F 44.6 °F 72% 30.05 in 10.0 mi Calm Calm - N/A   Unknown
10:55 AM 55.4 °F 44.6 °F 67% 30.05 in 10.0 mi Calm Calm - N/A   Unknown
11:15 AM 55.4 °F 44.6 °F 67% 30.04 in 10.0 mi Calm Calm - N/A   Unknown
11:35 AM 55.4 °F 42.8 °F 63% 30.04 in 10.0 mi Calm Calm - N/A   Unknown
11:55 AM 57.2 °F 44.6 °F 63% 30.05 in 10.0 mi Calm Calm - N/A   Unknown
12:15 PM 59.0 °F 44.6 °F 59% 30.04 in 10.0 mi Calm Calm - N/A   Unknown
12:35 PM 57.2 °F 46.4 °F 67% 30.04 in 10.0 mi Calm Calm - N/A   Unknown
12:55 PM 57.2 °F 44.6 °F 63% 30.04 in 10.0 mi Calm Calm - N/A   Unknown
1:15 PM 57.2 °F 44.6 °F 63% 30.04 in 10.0 mi Calm Calm - N/A   Unknown
1:35 PM 57.2 °F 44.6 °F 63% 30.04 in 10.0 mi Calm Calm - N/A   Unknown
1:55 PM 59.0 °F 46.4 °F 63% 30.03 in 10.0 mi Calm Calm - N/A   Unknown
2:15 PM 59.0 °F 42.8 °F 55% 30.03 in 10.0 mi Calm Calm - N/A   Unknown
2:35 PM 59.0 °F 44.6 °F 59% 30.03 in 10.0 mi Calm Calm - N/A   Unknown
2:55 PM 59.0 °F 44.6 °F 59% 30.03 in 10.0 mi Calm Calm - N/A   Unknown
3:15 PM 59.0 °F 44.6 °F 59% 30.03 in 10.0 mi Calm Calm - N/A   Unknown
3:35 PM 59.0 °F 46.4 °F 63% 30.03 in 10.0 mi Calm Calm - N/A   Unknown
3:55 PM 59.0 °F 44.6 °F 59% 30.03 in 10.0 mi Calm Calm - N/A   Unknown
4:15 PM 59.0 °F 46.4 °F 63% 30.03 in 10.0 mi Calm Calm - N/A   Unknown
4:35 PM 59.0 °F 46.4 °F 63% 30.02 in 10.0 mi Calm Calm - N/A   Unknown
4:55 PM 59.0 °F 46.4 °F 63% 30.02 in 10.0 mi Calm Calm - N/A   Unknown
5:15 PM 59.0 °F 46.4 °F 63% 30.02 in 10.0 mi Calm Calm - N/A   Unknown
5:35 PM 59.0 °F 46.4 °F 63% 30.02 in 10.0 mi Calm Calm - N/A   Unknown
5:55 PM 59.0 °F 46.4 °F 63% 30.01 in 10.0 mi Calm Calm - N/A   Unknown
6:15 PM 59.0 °F 46.4 °F 63% 30.01 in 10.0 mi NW 3.5 mph - N/A   Unknown
6:35 PM 59.0 °F 46.4 °F 63% 30.01 in 10.0 mi Calm Calm - N/A   Unknown
6:55 PM 59.0 °F 48.2 °F 67% 30.01 in 10.0 mi Calm Calm - N/A   Unknown
7:15 PM 57.2 °F 46.4 °F 67% 30.01 in 10.0 mi Calm Calm - N/A   Unknown
7:35 PM 57.2 °F 48.2 °F 72% 30.01 in 10.0 mi Calm Calm - N/A   Unknown
7:55 PM 57.2 °F 48.2 °F 72% 30.01 in 10.0 mi Calm Calm - N/A   Unknown
8:15 PM 57.2 °F 48.2 °F 72% 30.00 in 10.0 mi Calm Calm - N/A   Unknown
8:35 PM 55.4 °F 48.2 °F 77% 30.00 in 10.0 mi Calm Calm - N/A   Unknown
8:55 PM 53.6 °F 48.2 °F 82% 29.99 in 10.0 mi Calm Calm - N/A   Unknown
9:15 PM 53.6 °F 48.2 °F 82% 29.99 in 10.0 mi Calm Calm - N/A   Unknown
9:35 PM 53.6 °F 48.2 °F 82% 30.00 in 10.0 mi Calm Calm - N/A   Unknown
9:55 PM 51.8 °F 50.0 °F 94% 30.00 in 10.0 mi Calm Calm - N/A   Unknown
10:15 PM 51.8 °F 50.0 °F 94% 29.99 in 10.0 mi Calm Calm - N/A   Unknown
10:35 PM 50.0 °F 48.2 °F 94% 29.99 in 10.0 mi Calm Calm - N/A   Unknown
10:55 PM 48.2 °F 48.2 °F 100% 29.99 in 10.0 mi Calm Calm - N/A   Unknown
11:15 PM 48.2 °F 48.2 °F 100% 29.99 in 10.0 mi Calm Calm - N/A   Unknown
11:35 PM 48.2 °F 48.2 °F 100% 29.98 in 10.0 mi Calm Calm - N/A   Unknown
11:55 PM 48.2 °F 48.2 °F 100% 29.98 in 10.0 mi Calm Calm - N/A   Unknown